Starlink 11493

operational
NORAD ID: 62410 Int'l Des: 2024-249 Owner: SPXS Country: US Constellation: starlink
LEOCIRCULAR

About Starlink 11493

Description loading...

Live Position

Loading 3D Globe...

Upcoming Passes

Altitude History

Altitude vs Time

uPlot chart will show altitude changes over time

Two-Line Element Set

1 62410U 24249B 25302.94588476 .00272792 00000-0 20620-2 0 9998
2 62410 42.9990 236.1305 0001251 259.4113 100.6614 15.70821660 48918
Epoch: Oct 29, 2025 • Age: 42 hours

Current Status

Altitude 353.4 km
Velocity 7.70 km/s
Sub-Earth Point 18.28°N, 96.68°E
Launch Date Dec 23, 2024
Age 0.8 years
Type internet

Technical Details

Classification Payload
Mass 960.00 kg
Dry Mass 910.00 kg
Total Mass 960.00 kg
Length 0.30 m
Diameter 4.10 m
Span 29.00 m
Shape Box + pan
Manufacturer SPXS
Bus Type Starlink V2MD
Phase Status In Orbit
Owner/State SPXS/US

Large Constellations

Loading constellations...